Weather Roundup
Issued by NWS Chicago, IL

Home | Current Version | Previous Version | Graphics & Text | Print | Product List | Glossary On
Versions: 1 2 3 4 5 6 7 8 9 10 11 12 13 14 15 16 17 18 19 20 21 22 23 24 25 26 27 28 29 30 31 32 33 34 35 36 37 38 39 40 41 42 43 44 45 46 47 48 49 50
000
NZUS59 KLOT 201609
HRRLOT

CHICAGO AREA WEATHER ROUNDUP
NATIONAL WEATHER SERVICE CHICAGO/ROMEOVILLE IL
1100 AM CDT SUN AUG 20 2017

NOTE: "FAIR" INDICATES FEW OR NO CLOUDS BELOW 12,000 FEET WITH NO
SIGNIFICANT WEATHER AND/OR OBSTRUCTIONS TO VISIBILITY.

* THESE STATIONS ARE NOT UNDER NWS QUALITY CONTROL. THEY ALSO MAY NOT
  REPORT WEATHER SUCH AS PRECIPITATION OR FOG.

ILZ005-006-012>014-019>023-201700-
NORTHEAST ILLINOIS

CITY           SKY/WX    TMP DP  RH WIND       PRES   REMARKS
OHARE          PTSUNNY   82  64  54 S6        30.05S HX  83
MIDWAY         PTSUNNY   82  65  56 S3        30.05S HX  84
AURORA         PTSUNNY   78  69  73 S8        30.06S HX  80
LANSING*       MOSUNNY   81  64  55 SW8       30.07S HX  82
JOLIET*        MOSUNNY   82  71  68 SE3       30.06S HX  86
WAUKEGAN       CLOUDY    79  66  64 S10       30.05S HX  81
DUPAGE AIRPORT CLOUDY    79  69  71 S12       30.05S HX  81
WHEELING       CLOUDY    80  65  59 S6        30.06F HX  82
MORRIS*        MOSUNNY   80  71  74 S6        30.04S HX  83
LEWIS AIRPORT* MOSUNNY   81  66  61 SE6       30.06S HX  83
NORTHERLY ISL    N/A     81  61  50 S7          N/A  HX  82
$$

WIZ051-052-058>065-066-070>072-201700-
SOUTHEAST WISCONSIN

CITY           SKY/WX    TMP DP  RH WIND       PRES   REMARKS
MILWAUKEE      CLOUDY    80  64  58 SW12      30.05R HX  82
KENOSHA*       CLOUDY    80  64  58 SW8       30.05S HX  82
RACINE*        CLOUDY    78  66  66 S8        30.06S HX  80
WAUKESHA       SUNNY     73  63  68 S12       30.06S
WEST BEND      MOSUNNY   75  64  69 S7        30.05S
$$

INZ001>003-010>013-019-020-201700-
NORTHWEST INDIANA

CITY           SKY/WX    TMP DP  RH WIND       PRES   REMARKS
GARY*          PTSUNNY   82  63  51 S12       30.07S HX  83
MICHIGAN CITY* NOT AVBL
RENSSELAER*    NOT AVBL
VALPARAISO     SUNNY     81  68  64 S7        30.09S HX  84
$$

LMZ740>746-201700-
SOUTHERN LAKE MICHIGAN

STATION/POSITION TIME  SKY/WX   TEMP WIND        PRES    VSBY
                                AIR  DIR/SP/G
                 (UTC)          (F)  (DEG/KT/KT) (MB)    (MI)
HARRISON CRIB    1540            76  150/  8/  9   N/A
BURNHAM HARBOR   NOT AVBL
CALUMET HARBOR   1542            80  190/  7/ 10 1017.3R
BURNS HARBOR     1540            79  180/  6/ 11 1018.3F
MICHIGAN CITY    1540            77  180/  9/ 10   N/A
$$

ABBREVIATIONS USED IN REMARKS
   TC - TEMPERATURE IN CELSIUS
  WCI - WIND CHILL INDEX
   HX - HEAT INDEX
  VSB - VISIBILITY
$$




USA.gov is the U.S. government's official web portal to all federal, state and local government web resources and services.